Location: Le Rocchette
(44.3500°N, 7.8333°E)
Time: 02:25:46
(UTC+00:00)

STARLINK-75 - Pass Details

Date: 17 November 2019
Orbit: 529 x 530 km, 53.0° (Epoch: 14 December)

Event Time Altitude Azimuth Distance (km) Brightness Sun altitude
Exits shadow 05:12:01 10° 235° (SW) 1,742 5.8 -13.4°
Maximum altitude 05:15:58 90° 208° (SSW) 534 3.5 -12.7°
Drops below altitude 10° 05:20:00 10° 56° (ENE) 1,778 6.8 -12.0°
Sets 05:22:14 0° 57° (ENE) 2,671 7.8 -11.6°
